Starlink 36077

operational
NORAD ID: 66903 Int'l Des: 2025-283 Owner: SPXS Country: US Constellation: starlink
LEOCIRCULAR

About Starlink 36077

Description loading...

Live Position

Loading 3D Globe...

Upcoming Passes

Altitude History

Altitude vs Time

uPlot chart will show altitude changes over time

Two-Line Element Set

1 66903U 25283AB 25347.25002315 -.01311431 51341-3 -33837-2 0 9992
2 66903 53.1546 71.2760 0000899 73.2851 225.1086 15.94536304 2517
Epoch: Dec 13, 2025 • Age: 20 hours

Current Status

Altitude 296.4 km
Velocity 7.73 km/s
Sub-Earth Point -2.10°S, 44.74°W
Launch Date Dec 4, 2025
Age 9 days
Type internet

Technical Details

Classification Payload
Mass 575.00 kg
Dry Mass 530.00 kg
Total Mass 575.00 kg
Length 0.30 m
Diameter 4.10 m
Span 29.00 m
Shape Box + pan
Manufacturer SPXS
Bus Type Starlink V2MO
Phase Status In Orbit
Owner/State SPXS/US

Large Constellations

Loading constellations...